Regional Weather Roundup
Issued by NWS Northern Indiana

Home | Current Version | Previous Version | Graphics & Text | Print | Product List | Glossary On
Versions: 1 2 3 4 5 6 7 8 9 10 11 12 13 14 15 16 17 18 19 20 21 22 23 24 25 26 27 28 29 30 31 32 33 34 35 36 37 38 39 40 41 42 43 44 45 46 47 48 49 50
205
ASUS43 KIWX 290900
RWRIWX

KIWX WEATHER ROUNDUP
NATIONAL WEATHER SERVICE NORTHERN INDIANA
500 AM EDT THU JUN 29 2017

NOTE: "FAIR" INDICATES FEW OR NO CLOUDS BELOW 12,000 FEET WITH NO
SIGNIFICANT WEATHER AND/OR OBSTRUCTIONS TO VISIBILITY.

* THESE STATIONS ARE NOT UNDER NWS QUALITY CONTROL. THEY ALSO MAY NOT
  REPORT WEATHER SUCH AS PRECIPITATION OR FOG.

INZ001>027-291000-
NORTHERN INDIANA

CITY           SKY/WX    TMP DP  RH WIND       PRES   REMARKS
MICHIGAN CITY* CLOUDY    72  63  73 S12       29.79F
KNOX*          CLOUDY    72  52  49 S9G17     29.81F
SOUTH BEND     CLOUDY    70  62  76 S10       29.81F
GOSHEN         CLOUDY    71  58  63 S12       29.85F
MONTICELLO*    CLOUDY    73  61  65 SW20G28   29.84F
FORT WAYNE     CLOUDY    71  57  61 SW15      29.90F

$$
INZ028>050-291000-
CENTRAL INDIANA

CITY           SKY/WX    TMP DP  RH WIND       PRES   REMARKS
LAFAYETTE      CLOUDY    73  63  70 SW10G25   29.86F
KOKOMO*        MOCLDY    71  60  68 S17G23    29.91S
MUNCIE*        MOCLDY    73  57  57 SW13G21   29.94S
INDIANAPOLIS   MOCLDY    70  59  68 SW13      29.94F

$$
MIZ043>046-050>051-056>058-064>065-071>073-077>080-291000-
SOUTHWEST LOWER MICHIGAN

CITY           SKY/WX    TMP DP  RH WIND       PRES   REMARKS
BATTLE CREEK   CLOUDY    64  63  96 S9        29.83F
BENTON HARBOR  CLOUDY    65  62  90 S7        29.79F
COLDWATER*     PTCLDY    64  62  91 SE5       29.87F
HILLSDALE*     MOCLDY    63  55  77 CALM      29.89F
HOLLAND        CLOUDY    66  63  90 S10       29.76F
GRAND RAPIDS   LGT RAIN  65  64  97 S16       29.77F
KALAMAZOO      MOCLDY    65  61  87 SE6       29.81F
STURGIS*       CLOUDY    65  60  86 SE7       29.85F
THREE RIVERS*  FAIR      65  62  89 SE9       29.84F

$$
OHZ001>008-015>018-024>025-291000-
NORTHWEST OHIO

CITY           SKY/WX    TMP DP  RH WIND       PRES   REMARKS
DEFIANCE       MOCLDY    67  54  63 S8        29.91F
FINDLAY        CLOUDY    68  53  58 S14       29.94S
TOLEDO EXPRESS CLOUDY    68  56  65 S9        29.91S
TOLEDO METCALF CLOUDY    71  56  58 S13       29.92F
LIMA           MOCLDY    69  55  60 S15G22    29.95F

$$
AND FOR LAKE MICHIGAN COASTAL AND OPEN LAKE BUOY OBSERVATIONS

STATION/POSITION TEMP    WIND        PRES    VSBY  WAVE
                 AIR SEA DIR/SP/G                  HT/PER
                 (F)     (DEG/KT/KT) (MB)    (MI)  (FT/S)
CALUMET HARBOR    74     170/  6/ 11 1007.3F
MICHIGAN CITY     73     170/ 12/ 14   N/A
BURNS HARBOR      74     180/ 11/ 16 1008.5F
SOUTH LAKE BUOY   63 60  130/ 14/ 14 1007.5          3/ 4
4 MI NW BRIDGMAN  68 67  170/ 12/ 16 1008.6F         2/ 3
MICHIGAN CITY     71 65  190/ 10/ 12   N/A           1/ 3

$$
&&




USA.gov is the U.S. government's official web portal to all federal, state and local government web resources and services.